Location: C.E.K. Mees Observatory
(42.7003°N, 77.4088°W)
Time: 19:12:48
(UTC-04:00)

Tiangong 2 - Pass Details

Date: 08 October 2017
Orbit: 388 x 391 km, 42.8° (Epoch: 20 October)

Event Time Altitude Azimuth Distance (km) Brightness Sun altitude
Exits shadow 05:50:53 12° 192° (SSW) 1,285 3.5 -16.2°
Maximum altitude 05:52:49 19° 150° (SSE) 990 3.4 -15.9°
Drops below altitude 10° 05:55:12 10° 102° (ESE) 1,420 5.1 -15.5°
Sets 05:57:38 0° 84° (E) 2,279 6.9 -15.0°
